Simultaneous Nadir Overpasses (SNOs) Predictions

Prediction of SNOs between GOES-16 and AQUA Satellite Orbit:

Table of predicted SNOs for the next 14.0 days since TLE Epoch: 8/5/2023
Index Date Time (GOES-16) GOES-16 Lat,Lon AQUA Lat,Lon Distance(km) Time Diff (sec)
1 08/05/2023 07:06:46 -0.00, -75.20 0.67, -78.30 352.70 80
2 08/07/2023 06:49:46 -0.00, -75.23 -0.07, -74.80 48.28 80
3 08/09/2023 06:35:26 0.00, -75.26 -0.85, -71.31 449.90 80
4 08/09/2023 18:56:17 -0.00, -75.27 -0.21, -76.36 122.81 80
5 08/11/2023 18:44:35 -0.01, -75.31 0.50, -72.85 279.80 80
6 08/12/2023 07:05:16 0.01, -75.32 0.55, -77.86 289.43 80
7 08/14/2023 06:48:14 0.01, -75.36 -0.20, -74.36 114.08 80
8 08/14/2023 19:09:04 -0.01, -75.38 -0.88, -79.40 458.18 80
9 08/16/2023 18:54:42 -0.01, -75.43 -0.08, -75.91 53.46 80
10 08/18/2023 18:42:58 -0.01, -75.49 0.64, -72.39 352.51 80
